AVA8453 SKCG-SKBO

Flight info

Callsign AVA8453
Flight time 1h 5m
Altitude 37000
Route ILMIK2A AKPEK UQ121 ISVAT ISVAT5W
Aircraft A320/M-SDE3FGHIRWY/LB1

Departure

Time 2026-04-21 21:19
Airport Rafael Nuñez International Airport (SKCG)

Arrival

Time 2026-04-21 22:25
Airport El Dorado International Airport (SKBO)
Time Latitude Longitude Altitude Speed Heading
2026-04-21 20:59 10.44492 -75.51552 51 ft 0 kts 271°
2026-04-21 21:09 10.44493 -75.51531 51 ft 2 kts 269°
2026-04-21 21:09 10.44496 -75.51510 51 ft 4 kts 223°
2026-04-21 21:09 10.44517 -75.51502 46 ft 3 kts 183°
2026-04-21 21:10 10.44539 -75.51497 49 ft 4 kts 230°
2026-04-21 21:10 10.44551 -75.51473 51 ft 4 kts 243°
2026-04-21 21:10 10.44562 -75.51460 48 ft 2 kts 186°
2026-04-21 21:10 10.44582 -75.51458 51 ft 0 kts 182°
2026-04-21 21:14 10.44559 -75.51452 51 ft 6 kts 129°
2026-04-21 21:15 10.44550 -75.51351 51 ft 20 kts 90°
2026-04-21 21:15 10.44497 -75.51271 51 ft 17 kts 193°
2026-04-21 21:15 10.44352 -75.51284 51 ft 30 kts 182°
2026-04-21 21:15 10.44085 -75.51294 51 ft 40 kts 184°
2026-04-21 21:16 10.43842 -75.51305 51 ft 26 kts 181°
2026-04-21 21:16 10.43669 -75.51311 49 ft 24 kts 182°
2026-04-21 21:16 10.43510 -75.51319 51 ft 22 kts 182°
2026-04-21 21:16 10.43365 -75.51325 50 ft 20 kts 182°
2026-04-21 21:17 10.43251 -75.51328 51 ft 10 kts 172°
2026-04-21 21:17 10.43197 -75.51287 51 ft 9 kts 136°
2026-04-21 21:17 10.43155 -75.51246 51 ft 8 kts 136°
2026-04-21 21:17 10.43111 -75.51230 51 ft 6 kts 181°
2026-04-21 21:18 10.43077 -75.51242 51 ft 5 kts 224°
2026-04-21 21:18 10.43070 -75.51269 51 ft 4 kts 261°
2026-04-21 21:18 10.43071 -75.51314 51 ft 8 kts 273°
2026-04-21 21:18 10.43128 -75.51335 49 ft 17 kts
2026-04-21 21:19 10.43495 -75.51320 51 ft 88 kts
2026-04-21 21:19 10.44305 -75.51288 52 ft 143 kts
2026-04-21 21:19 10.45391 -75.51244 457 ft 158 kts
2026-04-21 21:19 10.46488 -75.51219 1131 ft 158 kts
2026-04-21 21:20 10.47623 -75.51180 1633 ft 173 kts
2026-04-21 21:20 10.48899 -75.51121 1966 ft 194 kts
2026-04-21 21:20 10.50284 -75.50825 2325 ft 213 kts 32°
2026-04-21 21:20 10.51187 -75.49648 2974 ft 220 kts 75°
2026-04-21 21:21 10.51083 -75.48110 3649 ft 226 kts 116°
2026-04-21 21:21 10.49995 -75.46974 4369 ft 230 kts 152°
2026-04-21 21:21 10.48502 -75.46378 5116 ft 232 kts 163°
2026-04-21 21:21 10.46928 -75.45960 5826 ft 236 kts 166°
2026-04-21 21:22 10.45320 -75.45559 6517 ft 240 kts 165°
2026-04-21 21:22 10.43695 -75.45127 7213 ft 242 kts 164°
2026-04-21 21:22 10.42065 -75.44659 7908 ft 245 kts 163°
2026-04-21 21:22 10.40397 -75.44283 8618 ft 247 kts 177°
2026-04-21 21:23 10.38631 -75.44419 9022 ft 266 kts 189°
2026-04-21 21:23 10.36725 -75.44742 9317 ft 288 kts 189°
2026-04-21 21:23 10.34711 -75.45074 9897 ft 297 kts 189°
2026-04-21 21:23 10.32633 -75.45408 10356 ft 312 kts 189°
2026-04-21 21:24 10.30445 -75.45752 10558 ft 333 kts 189°
2026-04-21 21:24 10.28113 -75.46115 11074 ft 342 kts 188°
2026-04-21 21:24 10.25742 -75.46483 11696 ft 347 kts 188°
2026-04-21 21:24 10.23349 -75.46854 11937 ft 348 kts 189°
2026-04-21 21:25 10.20943 -75.47224 12443 ft 351 kts 188°
2026-04-21 21:25 10.18524 -75.47597 13141 ft 353 kts 189°
2026-04-21 21:25 10.16084 -75.47976 13786 ft 356 kts 189°
2026-04-21 21:25 10.13620 -75.48359 14345 ft 360 kts 188°
2026-04-21 21:26 10.11130 -75.48746 14898 ft 363 kts 188°
2026-04-21 21:26 10.08621 -75.49137 15450 ft 366 kts 188°
2026-04-21 21:26 10.06086 -75.49532 15998 ft 369 kts 188°
2026-04-21 21:26 10.03531 -75.49932 16541 ft 373 kts 188°
2026-04-21 21:27 10.00996 -75.50328 17078 ft 376 kts 187°
2026-04-21 21:27 9.98401 -75.50733 17614 ft 379 kts 188°
2026-04-21 21:27 9.95778 -75.51143 18145 ft 382 kts 187°
2026-04-21 21:27 9.93138 -75.51557 18593 ft 385 kts 187°
2026-04-21 21:28 9.90476 -75.51971 19050 ft 388 kts 187°
2026-04-21 21:28 9.87800 -75.52386 19502 ft 390 kts 187°
2026-04-21 21:28 9.82397 -75.53222 20417 ft 395 kts 187°
2026-04-21 21:29 9.79669 -75.53642 20854 ft 398 kts 187°
2026-04-21 21:29 9.76924 -75.54067 21288 ft 400 kts 187°
2026-04-21 21:29 9.74153 -75.54498 21714 ft 403 kts 187°
2026-04-21 21:29 9.71374 -75.54933 22141 ft 405 kts 187°
2026-04-21 21:30 9.68580 -75.55371 22545 ft 408 kts 187°
2026-04-21 21:30 9.65768 -75.55811 22964 ft 410 kts 187°
2026-04-21 21:30 9.62938 -75.56252 23383 ft 412 kts 187°
2026-04-21 21:30 9.60094 -75.56693 23731 ft 415 kts 187°
2026-04-21 21:31 9.57237 -75.57135 24078 ft 416 kts 187°
2026-04-21 21:31 9.54404 -75.57574 24438 ft 418 kts 187°
2026-04-21 21:31 9.51485 -75.58028 24783 ft 420 kts 187°
2026-04-21 21:31 9.48594 -75.58479 25119 ft 421 kts 187°
2026-04-21 21:32 9.45727 -75.58927 25454 ft 423 kts 187°
2026-04-21 21:32 9.42808 -75.59380 25804 ft 424 kts 187°
2026-04-21 21:32 9.39881 -75.59831 26147 ft 426 kts 187°
2026-04-21 21:32 9.36946 -75.60282 26479 ft 427 kts 188°
2026-04-21 21:33 9.34001 -75.60736 26801 ft 429 kts 188°
2026-04-21 21:33 9.31043 -75.61194 27129 ft 430 kts 188°
2026-04-21 21:33 9.28077 -75.61656 27446 ft 432 kts 188°
2026-04-21 21:33 9.25105 -75.62121 27761 ft 434 kts 188°
2026-04-21 21:34 9.22110 -75.62589 28071 ft 435 kts 188°
2026-04-21 21:34 9.19106 -75.63054 28379 ft 437 kts 188°
2026-04-21 21:34 9.16094 -75.63519 28690 ft 439 kts 188°
2026-04-21 21:34 9.13063 -75.63987 28977 ft 441 kts 188°
2026-04-21 21:35 9.10024 -75.64457 29278 ft 443 kts 188°
2026-04-21 21:35 9.07014 -75.64925 29566 ft 444 kts 188°
2026-04-21 21:35 9.03951 -75.65400 29852 ft 446 kts 188°
2026-04-21 21:35 9.00875 -75.65874 30106 ft 447 kts 188°
2026-04-21 21:36 8.97792 -75.66350 30333 ft 449 kts 188°
2026-04-21 21:36 8.94697 -75.66827 30570 ft 450 kts 188°
2026-04-21 21:36 8.91599 -75.67305 30809 ft 451 kts 188°
2026-04-21 21:36 8.88488 -75.67787 31043 ft 453 kts 188°
2026-04-21 21:37 8.85372 -75.68270 31275 ft 454 kts 188°
2026-04-21 21:37 8.82255 -75.68754 31609 ft 452 kts 188°
2026-04-21 21:37 8.79151 -75.69234 31950 ft 451 kts 188°
2026-04-21 21:37 8.76050 -75.69711 32276 ft 450 kts 188°
2026-04-21 21:38 8.72960 -75.70185 32612 ft 449 kts 188°
2026-04-21 21:38 8.69872 -75.70661 32946 ft 448 kts 188°
2026-04-21 21:38 8.66794 -75.71137 33282 ft 447 kts 188°
2026-04-21 21:38 8.63724 -75.71610 33625 ft 446 kts 188°
2026-04-21 21:39 8.60658 -75.72083 33951 ft 445 kts 188°
2026-04-21 21:39 8.57604 -75.72557 34248 ft 444 kts 188°
2026-04-21 21:39 8.54556 -75.73031 34542 ft 442 kts 188°
2026-04-21 21:39 8.51514 -75.73502 34832 ft 441 kts 188°
2026-04-21 21:40 8.48487 -75.73971 35121 ft 440 kts 188°
2026-04-21 21:40 8.45504 -75.74430 35396 ft 439 kts 188°
2026-04-21 21:40 8.42487 -75.74892 35661 ft 438 kts 188°
2026-04-21 21:40 8.39478 -75.75355 35917 ft 437 kts 188°
2026-04-21 21:41 8.36474 -75.75817 36176 ft 436 kts 188°
2026-04-21 21:41 8.33482 -75.76281 36423 ft 435 kts 188°
2026-04-21 21:41 8.30498 -75.76744 36666 ft 434 kts 188°
2026-04-21 21:41 8.27510 -75.77207 36850 ft 434 kts 188°
2026-04-21 21:42 8.24534 -75.77664 36893 ft 431 kts 188°
2026-04-21 21:42 8.18614 -75.78574 36899 ft 430 kts 188°
2026-04-21 21:43 8.12683 -75.79493 36900 ft 432 kts 188°
2026-04-21 21:43 8.06764 -75.80410 36910 ft 434 kts 188°
2026-04-21 21:44 8.00776 -75.81294 36907 ft 435 kts 184°
2026-04-21 21:44 7.94779 -75.80846 36910 ft 433 kts 168°
2026-04-21 21:45 7.88860 -75.79651 36923 ft 434 kts 168°
2026-04-21 21:45 7.82929 -75.78484 36926 ft 434 kts 169°
2026-04-21 21:46 7.77001 -75.77314 36954 ft 434 kts 169°
2026-04-21 21:46 7.71076 -75.76131 36948 ft 434 kts 169°
2026-04-21 21:47 7.65150 -75.74949 36975 ft 435 kts 169°
2026-04-21 21:47 7.59243 -75.73774 36975 ft 435 kts 169°
2026-04-21 21:48 7.53286 -75.72592 36974 ft 436 kts 169°
2026-04-21 21:48 7.47329 -75.71410 37006 ft 436 kts 169°
2026-04-21 21:49 7.41360 -75.70231 37009 ft 436 kts 169°
2026-04-21 21:49 7.35450 -75.69052 37040 ft 436 kts 169°
2026-04-21 21:50 7.29493 -75.67856 37038 ft 436 kts 168°
2026-04-21 21:50 7.23541 -75.66669 37037 ft 437 kts 169°
2026-04-21 21:51 7.17566 -75.65489 37038 ft 437 kts 169°
2026-04-21 21:51 7.11601 -75.64307 37041 ft 437 kts 169°
2026-04-21 21:52 7.05625 -75.63121 37058 ft 437 kts 169°
2026-04-21 21:52 6.99695 -75.61945 37057 ft 437 kts 169°
2026-04-21 21:53 6.93737 -75.60768 37054 ft 437 kts 169°
2026-04-21 21:53 6.87771 -75.59588 37076 ft 437 kts 169°
2026-04-21 21:54 6.81805 -75.58410 37077 ft 437 kts 169°
2026-04-21 21:54 6.75848 -75.57225 37079 ft 437 kts 169°
2026-04-21 21:55 6.70856 -75.56236 37082 ft 437 kts 169°
2026-04-21 21:55 6.64929 -75.55064 37082 ft 437 kts 169°
2026-04-21 21:56 6.58964 -75.53875 37081 ft 437 kts 168°
2026-04-21 21:56 6.53002 -75.52688 37077 ft 437 kts 168°
2026-04-21 21:57 6.47040 -75.51510 37073 ft 437 kts 168°
2026-04-21 21:57 6.41073 -75.50337 37011 ft 440 kts 168°
2026-04-21 21:57 6.38055 -75.49739 36760 ft 442 kts 168°
2026-04-21 21:58 6.35037 -75.49139 36518 ft 441 kts 168°
2026-04-21 21:58 6.32034 -75.48541 36326 ft 439 kts 168°
2026-04-21 21:58 6.29032 -75.47947 36087 ft 438 kts 168°
2026-04-21 21:59 6.23084 -75.46774 35773 ft 434 kts 168°
2026-04-21 21:59 6.20124 -75.46190 35546 ft 432 kts 168°
2026-04-21 21:59 6.17184 -75.45611 35315 ft 430 kts 169°
2026-04-21 21:59 6.14251 -75.45032 35083 ft 428 kts 168°
2026-04-21 22:00 6.11336 -75.44455 34851 ft 426 kts 169°
2026-04-21 22:00 6.08430 -75.43877 34624 ft 425 kts 168°
2026-04-21 22:00 6.05538 -75.43301 34383 ft 423 kts 169°
2026-04-21 22:00 6.02655 -75.42721 34117 ft 421 kts 167°
2026-04-21 22:01 5.99876 -75.41833 33836 ft 419 kts 156°
2026-04-21 22:01 5.97308 -75.40475 33560 ft 417 kts 147°
2026-04-21 22:01 5.95024 -75.38692 33282 ft 416 kts 137°
2026-04-21 22:01 5.92996 -75.36627 33012 ft 415 kts 135°
2026-04-21 22:02 5.90987 -75.34555 32736 ft 413 kts 135°
2026-04-21 22:02 5.88980 -75.32493 32461 ft 412 kts 135°
2026-04-21 22:02 5.86975 -75.30435 32188 ft 411 kts 135°
2026-04-21 22:02 5.84977 -75.28385 31876 ft 408 kts 135°
2026-04-21 22:03 5.82994 -75.26354 31367 ft 406 kts 135°
2026-04-21 22:03 5.81018 -75.24335 30871 ft 405 kts 135°
2026-04-21 22:03 5.79053 -75.22326 30384 ft 402 kts 135°
2026-04-21 22:03 5.77099 -75.20324 29846 ft 400 kts 135°
2026-04-21 22:04 5.75160 -75.18336 29373 ft 396 kts 135°
2026-04-21 22:04 5.73240 -75.16365 28915 ft 392 kts 135°
2026-04-21 22:04 5.71342 -75.14423 28474 ft 388 kts 136°
2026-04-21 22:04 5.69275 -75.12723 28042 ft 383 kts 147°
2026-04-21 22:05 5.67005 -75.11359 27801 ft 374 kts 146°
2026-04-21 22:05 5.64995 -75.09775 27709 ft 362 kts 139°
2026-04-21 22:05 5.63164 -75.08093 27628 ft 355 kts 137°
2026-04-21 22:05 5.61391 -75.06356 27524 ft 356 kts 136°
2026-04-21 22:06 5.59623 -75.04607 27438 ft 357 kts 136°
2026-04-21 22:06 5.57839 -75.02872 27384 ft 357 kts 137°
2026-04-21 22:06 5.56040 -75.01161 27300 ft 356 kts 137°
2026-04-21 22:06 5.54230 -74.99474 27223 ft 355 kts 138°
2026-04-21 22:07 5.52408 -74.97796 27141 ft 355 kts 138°
2026-04-21 22:07 5.50586 -74.96126 27055 ft 355 kts 138°
2026-04-21 22:07 5.48761 -74.94452 26972 ft 355 kts 138°
2026-04-21 22:07 5.46934 -74.92776 26889 ft 355 kts 138°
2026-04-21 22:08 5.45111 -74.91102 26804 ft 355 kts 138°
2026-04-21 22:08 5.43298 -74.89431 26735 ft 354 kts 138°
2026-04-21 22:08 5.41487 -74.87760 26652 ft 353 kts 138°
2026-04-21 22:08 5.39678 -74.86093 26566 ft 353 kts 138°
2026-04-21 22:09 5.37867 -74.84427 26483 ft 354 kts 138°
2026-04-21 22:09 5.36056 -74.82757 26407 ft 353 kts 138°
2026-04-21 22:09 5.34244 -74.81088 26249 ft 354 kts 138°
2026-04-21 22:09 5.32449 -74.79438 25880 ft 353 kts 139°
2026-04-21 22:10 5.30642 -74.77777 25455 ft 352 kts 138°
2026-04-21 22:10 5.28838 -74.76117 25036 ft 351 kts 139°
2026-04-21 22:10 5.27038 -74.74462 24601 ft 351 kts 139°
2026-04-21 22:10 5.25233 -74.72801 24162 ft 352 kts 139°
2026-04-21 22:11 5.23425 -74.71135 23715 ft 353 kts 139°
2026-04-21 22:11 5.21614 -74.69468 23230 ft 354 kts 139°
2026-04-21 22:11 5.19804 -74.67802 22775 ft 353 kts 139°
2026-04-21 22:11 5.17999 -74.66140 22339 ft 351 kts 138°
2026-04-21 22:12 5.16202 -74.64488 21908 ft 350 kts 139°
2026-04-21 22:12 5.14406 -74.62836 21497 ft 349 kts 139°
2026-04-21 22:12 5.12617 -74.61191 21101 ft 348 kts 139°
2026-04-21 22:12 5.10833 -74.59549 20670 ft 348 kts 138°
2026-04-21 22:13 5.09047 -74.57906 20268 ft 348 kts 139°
2026-04-21 22:13 5.07265 -74.56268 19854 ft 348 kts 139°
2026-04-21 22:13 5.05478 -74.54625 19434 ft 348 kts 139°
2026-04-21 22:13 5.03692 -74.52982 19006 ft 348 kts 139°
2026-04-21 22:14 5.01905 -74.51340 18580 ft 348 kts 139°
2026-04-21 22:14 5.00117 -74.49699 18182 ft 348 kts 139°
2026-04-21 22:14 4.98315 -74.48044 17477 ft 356 kts 138°
2026-04-21 22:14 4.96493 -74.46368 17026 ft 354 kts 138°
2026-04-21 22:15 4.94682 -74.44703 16691 ft 350 kts 138°
2026-04-21 22:15 4.92917 -74.43079 16562 ft 339 kts 138°
2026-04-21 22:15 4.91142 -74.41574 16449 ft 329 kts 147°
2026-04-21 22:15 4.89176 -74.40483 16337 ft 319 kts 154°
2026-04-21 22:16 4.87231 -74.39482 16221 ft 310 kts 153°
2026-04-21 22:16 4.85329 -74.38500 16037 ft 305 kts 153°
2026-04-21 22:16 4.83452 -74.37529 15792 ft 303 kts 153°
2026-04-21 22:16 4.81580 -74.36559 15512 ft 302 kts 153°
2026-04-21 22:17 4.79717 -74.35593 15261 ft 300 kts 153°
2026-04-21 22:17 4.77882 -74.34639 15134 ft 293 kts 153°
2026-04-21 22:17 4.76093 -74.33711 14993 ft 287 kts 153°
2026-04-21 22:17 4.74329 -74.32797 14786 ft 284 kts 154°
2026-04-21 22:18 4.72578 -74.31893 14542 ft 283 kts 154°
2026-04-21 22:18 4.70824 -74.30988 14202 ft 286 kts 153°
2026-04-21 22:18 4.69139 -74.29842 13614 ft 297 kts 137°
2026-04-21 22:18 4.67807 -74.28331 13468 ft 281 kts 128°
2026-04-21 22:19 4.66612 -74.26836 13334 ft 270 kts 129°
2026-04-21 22:19 4.65452 -74.25404 13212 ft 258 kts 129°
2026-04-21 22:19 4.64338 -74.24032 13107 ft 251 kts 129°
2026-04-21 22:19 4.63249 -74.22687 12992 ft 247 kts 128°
2026-04-21 22:20 4.62331 -74.21248 12665 ft 241 kts 116°
2026-04-21 22:20 4.61750 -74.19714 12293 ft 229 kts 104°
2026-04-21 22:20 4.61408 -74.18194 11979 ft 218 kts 102°
2026-04-21 22:20 4.61081 -74.16754 11695 ft 205 kts 103°
2026-04-21 22:21 4.60769 -74.15394 11444 ft 194 kts 103°
2026-04-21 22:21 4.60480 -74.14132 11191 ft 179 kts 103°
2026-04-21 22:21 4.60268 -74.12943 10959 ft 173 kts 92°
2026-04-21 22:21 4.60371 -74.11740 10733 ft 171 kts 76°
2026-04-21 22:22 4.60802 -74.10642 10517 ft 169 kts 59°
2026-04-21 22:22 4.61517 -74.09722 10286 ft 167 kts 43°
2026-04-21 22:22 4.62455 -74.09049 10054 ft 166 kts 26°
2026-04-21 22:22 4.63521 -74.08676 9829 ft 164 kts
2026-04-21 22:23 4.64666 -74.08609 9590 ft 163 kts 353°
2026-04-21 22:23 4.65749 -74.08848 9373 ft 160 kts 336°
2026-04-21 22:23 4.66724 -74.09378 9157 ft 158 kts 320°
2026-04-21 22:23 4.67507 -74.10129 8919 ft 154 kts 307°
2026-04-21 22:24 4.68137 -74.10991 8781 ft 153 kts 304°
2026-04-21 22:24 4.68780 -74.11843 8569 ft 153 kts 307°
2026-04-21 22:24 4.69426 -74.12686 8384 ft 151 kts 307°
2026-04-21 22:24 4.69991 -74.13426 8367 ft 110 kts 307°
2026-04-21 22:25 4.70359 -74.13909 8365 ft 62 kts 306°
2026-04-21 22:25 4.70589 -74.14214 8367 ft 49 kts 307°
2026-04-21 22:25 4.70779 -74.14467 8367 ft 42 kts 307°
2026-04-21 22:25 4.70949 -74.14691 8365 ft 39 kts 307°
2026-04-21 22:26 4.71104 -74.14897 8363 ft 36 kts 307°
2026-04-21 22:26 4.71249 -74.15088 8365 ft 33 kts 307°
2026-04-21 22:26 4.71316 -74.15198 8366 ft 11 kts 262°
2026-04-21 22:26 4.71258 -74.15226 8367 ft 10 kts 175°
2026-04-21 22:27 4.71201 -74.15221 8366 ft 7 kts 173°
2026-04-21 22:27 4.71123 -74.15212 8366 ft 16 kts 173°
2026-04-21 22:27 4.71047 -74.15152 8366 ft 20 kts 125°
2026-04-21 22:27 4.70945 -74.15013 8366 ft 27 kts 129°
2026-04-21 22:28 4.70824 -74.14850 8366 ft 29 kts 127°
2026-04-21 22:28 4.70703 -74.14692 8367 ft 28 kts 127°
2026-04-21 22:28 4.70598 -74.14553 8366 ft 24 kts 127°
2026-04-21 22:28 4.70513 -74.14442 8366 ft 14 kts 127°
2026-04-21 22:29 4.70450 -74.14389 8366 ft 11 kts 187°
2026-04-21 22:29 4.70389 -74.14430 8366 ft 11 kts 216°
2026-04-21 22:29 4.70327 -74.14477 8366 ft 12 kts 217°
2026-04-21 22:29 4.70248 -74.14537 8366 ft 18 kts 217°
2026-04-21 22:30 4.70132 -74.14625 8366 ft 23 kts 217°
2026-04-21 22:30 4.70001 -74.14722 8366 ft 23 kts 217°
2026-04-21 22:30 4.69910 -74.14782 8366 ft 9 kts 184°
2026-04-21 22:30 4.69875 -74.14749 8366 ft 7 kts 125°
2026-04-21 22:31 4.69831 -74.14686 8366 ft 13 kts 125°
2026-04-21 22:31 4.69783 -74.14623 8366 ft 10 kts 128°
2026-04-21 22:31 4.69761 -74.14590 8366 ft 2 kts 107°
2026-04-21 22:31 4.69770 -74.14577 8366 ft 4 kts 46°
2026-04-21 22:32 4.69786 -74.14564 8366 ft 2 kts 39°
2026-04-21 22:32 4.69793 -74.14558 8366 ft 3 kts 38°
2026-04-21 22:32 4.69800 -74.14553 8366 ft 0 kts 38°